DECAYED

STARLINK-4465, 53496 (Decayed)

Orbit data source: Space-Track

STARLINK-4465, 53496 was a payload satellite owned by SpaceX/Seattle (US) in LEO that was launched on Fri, 12 Aug 2022 UTC via an FALCON 9 launch vehicle from the Air Force Western Test Range (AFWTR). Payload-class satellites include a variety of spacecraft equipped with specific instruments for various scientific and technological missions. These include communications satellites like Starlink; space stations such as the ISS; scientific satellites like the Hubble; Earth observation satellites from companies like Planet Labs, Umbra, and HawkEye 360; GPS; miniature CubeSats for education and research; and military/defense satellites.

Not visible in the next 10 days
Identifier
53496, 2022-099AH
Orbit
Decayed
Country
Flag of USUS
Related business
Manufacturer
SpaceX/Seattle
Mission
Decayed Commercial Communications
Bus & Motor
STARLINK, Unknown motor
Mass
300 kg wet, ~275 kg dry
Launch date (UTC)
2022-08-12 (4 years ago)
Launch vehicle
FALCON 9
Launch site
Air Force Western Test Range (AFWTR)
Object type
Payload
Rocket body
Debris
Shape & HBR
Box + 1 Pan, 10.1 m
Radar Cross Section
13.562 m², Large (>1 m²)

Expand to show TLE details & history
Last TLE update: 1 month ago

TLE from 1 month ago
0 STARLINK-4465
1 53496U 22099AH  26110.34805813  .09372728  27086-5  24842-3 0  9990
2 53496  97.6189 263.1325 0013178 278.8089  81.1720 16.44607582204180
Epoch: 2026-04-20T08:21Z
TLE epoch observation values (Epoch: 2026-04-20T08:21:12.222Z)
Latitude
Longitude
-70.60791°
Altitude
155.515 km
Speed
7.814 km/s
True Right ascension
17h 32m 31s
True Declination
0° 00' 00"
Sunlit
Object was in full shadow at epoch
Visualization orbit readout
Latitude
Unknown
Longitude
Unknown
Altitude
Unknown
Speed
Unknown
Apparent Right ascension
Unknown
Apparent Declination
Unknown
Sunlit
N/A
Visualization observer readout
Local Sidereal Time
08:00:49
Azimuth
Unknown
Elevation
Unknown
Doppler factor
Unknown
Orbital elements
Apogee altitude
158.989 km
Perigee altitude
141.783 km
Semi-major axis
6,528.523 km
Eccentricity
0.00132
Inclination
97.6189°
RAAN
263.1325°
Arg. of periapsis
278.8089°
True anomaly
81.32126°
Mean anomaly
81.172°
Eccentric anomaly
81.24662°
Mean motion
4.11454 °/min
Orbital period
87.49 mins
BSTAR
0.00024842
Loading maneuver chart data...
Computing Atmospheric mass density...
Loading historical data...
Loading historical data...
Loading historical data...
Loading historical data...
Loading historical data...
Loading historical data...
Loading historical data...

Documentation

Showing up to 5 results
|